Flag for Gambia Weather past 2 weeks in Serekunda, Gambia

Now
77 °F

Clear.


Feels Like: 78 °F
Forecast: 75 / 89 °F
Wind: 7 mph from North

Location: Banjul / Yundum

Current Time: May 23, 2015 at 5:09:27 AM

Latest Report: May 23, 2015 at 4:00 AM


Visibility: 10 mi

Pressure: 29.89 "Hg

Humidity: 89%

Dew point: 73 °F

Location of SerekundaLocation

Historic Weather in Serekunda — Graph

°F

Serekunda temperature yesterday

Maximum temperature yesterday: 91 °F (at 12:00 PM)
Minimum temperature yesterday: 75 °F (at 6:00 AM)
Average temperature yesterday: 81 °F

Past Weeks' High & Low Weather Summary

 TemperatureHumidityPressure
High95 °F (May 19, 4:00 AM)100% (May 14, 1:00 AM)30.01 "Hg (May 14, 1:00 AM)
Low72 °F (May 8, 5:00 AM)24% (May 17, 5:00 AM)29.77 "Hg (May 15, 4:00 PM)
Average80 °F73%29.86 "Hg
* Reported May 8 4:00 AM — May 23 4:00 AM, Serekunda, Weather by CustomWeather, © 2015

Note: Actual official high and low records may vary slightly from our data, if they occured in-between our weather recording intervals... More about our weather records

Advertising

Serekunda weather history for previous 24 hours

 ConditionsComfort  
Time TempWeatherWind HumidityBarometerVisibility
4:00 AM
Sat, May 23
77 °FClear.7 mph89%29.89 "Hg10 mi
3:00 AM77 °FClear.6 mph83%29.86 "Hg10 mi
2:00 AM77 °FClear.10 mph83%29.89 "Hg10 mi
1:00 AM77 °FClear.12 mph89%29.92 "Hg10 mi
12:00 AM77 °FClear.12 mph89%29.92 "Hg10 mi
11:00 PM
Fri, May 22
77 °FClear.9 mph89%29.92 "Hg10 mi
10:00 PM79 °FClear.8 mph84%29.92 "Hg10 mi
9:00 PM79 °FClear.6 mph84%29.92 "Hg10 mi
8:00 PM81 °FClear.7 mph79%29.89 "Hg10 mi
7:00 PM81 °FSunny.7 mph79%29.89 "Hg10 mi
6:00 PM82 °FSunny.9 mph70%29.89 "Hg10 mi
5:00 PM84 °FSunny.12 mph62%29.86 "Hg10 mi
4:00 PM86 °FSunny.13 mph55%29.89 "Hg10 mi
3:00 PM90 °FSunny.10 mph52%29.92 "Hg10 mi
2:00 PM90 °FSunny.12 mph49%29.92 "Hg10 mi
1:00 PM91 °FSunny.18 mph41%29.98 "Hg10 mi
12:00 PM91 °FSunny.15 mph49%29.98 "Hg10 mi
11:00 AM86 °FSunny.13 mph59%29.98 "Hg10 mi
10:00 AM82 °FSunny.10 mph70%30.01 "Hg10 mi
9:00 AM79 °FBroken clouds.8 mph79%30.01 "HgN/A
8:00 AM77 °FPartly sunny.No wind89%29.98 "HgN/A
7:00 AM75 °FPassing clouds.No wind94%29.95 "HgN/A
6:00 AM75 °FPassing clouds.No wind94%29.95 "HgN/A
5:00 AM77 °FPassing clouds.No wind89%29.92 "HgN/A
Weather by CustomWeather, © 2015

See weather overviewHow to use our weather pages